Wind_Speed
45 45 44 44 43 43 43 43 43 42 41 40 39 38 37 37 37 37 38 39 40 40 40 40 40 40 39 40 40 41 42 44 46 48 52 55 58 60 62 61 58 55
48 47 47 46 46 46 46 46 46 45 45 44 43 42 42 41 40 40 40 40 41 41 41 41 42 42 42 41 41 42 42 43 45 47 50 53 56 59 61 63 63 61
50 50 50 49 49 48 48 48 48 48 48 47 46 46 45 45 44 44 43 42 42 42 42 43 43 43 44 44 43 43 43 43 44 46 48 50 53 56 59 61 63 64
52 52 52 52 52 52 51 51 51 50 50 49 49 48 48 48 48 48 47 46 45 44 44 44 44 44 45 46 46 45 45 45 45 46 47 49 51 53 56 59 62 64
54 54 54 54 54 54 54 54 54 53 53 52 51 51 50 50 50 50 50 49 48 48 47 46 46 46 46 47 47 47 48 48 48 48 48 48 50 51 53 56 59 62
55 55 55 55 56 57 57 56 56 56 56 55 54 53 53 53 52 52 52 51 51 51 50 50 49 49 48 48 48 49 49 50 50 51 51 50 50 51 52 54 56 58
57 57 57 57 58 59 59 58 58 58 58 57 57 57 56 56 55 55 54 53 53 53 53 53 53 53 52 51 51 50 50 51 52 53 53 53 52 52 53 54 55 56
61 60 60 60 61 61 61 61 60 60 60 60 60 59 59 59 59 58 57 57 56 55 55 56 56 57 56 56 54 53 53 52 53 53 54 55 55 55 55 55 56 56
63 64 64 64 64 64 64 63 63 62 62 62 62 62 62 62 62 61 61 60 60 59 59 59 59 59 60 59 59 57 57 56 56 55 55 56 56 57 58 58 57 58
65 66 66 66 66 66 66 66 66 65 65 64 64 64 64 64 64 64 64 64 63 63 63 63 63 63 63 63 62 62 61 61 60 59 58 58 58 59 59 60 60 60
66 67 67 67 66 66 68 69 69 68 68 68 67 67 66 66 66 66 66 66 66 66 66 67 68 68 67 66 65 65 65 65 65 64 63 62 62 62 62 62 63 63
64 65 66 65 63 63 67 70 70 70 70 71 70 70 69 69 68 68 68 68 69 69 69 70 71 71 71 70 69 68 68 68 68 68 68 67 66 65 65 64 64 65
63 64 64 62 59 59 64 67 68 69 70 71 72 72 72 72 72 71 72 72 72 72 73 73 74 74 74 73 73 72 71 71 71 71 71 71 70 69 68 68 67 67
64 64 63 61 59 59 62 65 66 67 68 70 71 71 72 72 72 74 75 76 76 77 77 77 77 76 75 75 75 75 75 74 74 74 74 74 74 73 72 72 71 70
66 66 64 62 61 61 63 64 65 65 66 68 69 69 69 69 71 73 75 76 78 79 80 81 80 80 79 78 78 77 78 78 78 78 77 77 76 76 76 76 75 75
69 69 67 65 64 64 64 65 65 66 66 67 68 68 68 67 69 70 71 72 76 78 80 81 83 83 83 83 81 80 79 79 80 80 81 80 79 79 79 79 79 78
71 71 70 69 67 66 66 66 66 67 67 68 67 67 67 67 67 68 68 69 73 76 77 79 82 85 87 86 86 85 83 81 81 82 83 83 83 82 82 82 82 82
73 73 73 72 71 70 69 69 69 69 69 69 69 68 67 67 67 68 68 69 72 74 74 76 80 83 86 88 89 88 86 84 84 84 84 84 85 85 85 85 85 85
75 75 75 74 73 72 72 72 71 72 72 72 71 70 69 68 67 68 69 70 72 72 72 76 80 82 85 87 88 88 87 87 88 87 87 86 86 87 87 88 88 88
77 77 76 75 75 74 74 73 73 74 74 74 74 73 72 70 69 69 70 72 72 72 72 76 80 82 83 84 84 84 86 89 90 90 90 90 90 90 90 90 90 90
79 78 78 77 76 75 75 75 75 75 76 75 75 75 74 73 72 72 73 73 74 74 73 75 78 80 82 81 80 80 82 86 88 90 91 92 92 93 93 93 92 92
81 81 80 80 79 77 77 76 76 77 77 77 77 76 76 75 75 75 75 75 75 75 75 76 78 80 80 79 78 79 81 83 85 86 88 91 93 95 96 96 95 95
83 83 82 82 81 80 79 78 78 78 78 78 78 78 77 77 77 77 77 77 77 77 77 78 79 80 79 78 78 79 80 81 82 83 85 87 90 93 95 96 97 98
84 84 83 82 82 81 80 79 79 79 78 79 79 79 79 79 79 79 79 79 78 79 79 79 80 80 79 78 79 79 79 79 80 81 82 83 86 88 91 93 96 98
83 83 82 81 81 80 80 79 79 79 79 79 79 80 80 80 81 80 80 80 80 80 80 79 79 80 80 79 79 79 78 78 78 79 79 80 81 83 85 88 91 94
82 81 80 79 79 79 78 78 79 79 79 79 80 80 80 81 81 81 81 82 82 81 79 79 79 81 81 80 78 77 77 76 77 76 76 76 78 79 82 84 87 90
Wind_Direction
253 253 254 254 254 254 255 254 254 254 253 252 252 252 251 251 250 248 246 245 244 244 244 244 244 243 242 240 238 235 231 228 228 228 228 229 229 228 228 227 226 225
251 252 251 252 252 252 252 253 253 254 253 253 252 252 252 251 251 250 248 247 246 245 245 245 244 244 243 242 241 240 237 233 231 230 230 229 230 231 232 232 232 231
252 252 251 251 251 251 251 251 252 252 252 252 252 252 252 251 251 250 250 249 248 246 246 245 245 244 244 243 242 242 242 239 236 234 233 232 231 231 233 234 235 235
252 252 252 251 251 251 251 251 251 251 251 251 251 251 251 251 251 250 250 249 249 248 247 246 245 245 244 243 242 242 243 243 241 239 237 236 235 234 234 234 235 236
253 253 252 252 252 251 250 250 250 250 250 251 251 251 252 252 252 251 251 250 250 249 249 248 247 246 245 244 244 243 243 242 242 242 241 239 238 238 237 236 236 237
255 254 254 253 253 252 251 250 249 249 249 250 250 251 251 252 252 252 252 251 251 250 250 250 249 248 246 245 244 244 244 243 242 242 243 242 240 240 240 239 238 238
255 255 255 254 254 253 252 251 250 250 249 249 249 249 250 250 251 251 252 252 251 251 250 250 250 250 249 247 245 244 244 244 244 243 243 243 243 242 241 241 241 240
256 256 255 254 254 254 254 253 251 251 250 250 249 249 249 249 249 249 249 250 250 250 250 250 250 250 250 249 248 246 245 245 245 245 244 244 244 244 243 242 242 242
256 256 255 254 254 254 254 254 253 252 251 251 250 250 250 249 249 249 249 249 249 249 249 249 249 249 249 249 249 248 247 247 245 245 245 244 244 244 244 243 243 243
255 255 254 254 254 254 255 255 254 253 252 252 251 251 250 250 250 250 250 250 249 249 249 249 248 248 247 247 247 248 248 248 247 246 245 245 244 244 244 244 244 243
254 253 253 253 254 255 255 255 254 254 253 253 252 252 251 251 251 250 250 250 250 249 249 249 248 248 247 246 246 246 246 247 247 247 247 246 245 245 244 243 244 244
254 253 252 251 252 255 256 255 254 254 254 253 253 252 252 252 252 252 252 252 251 250 250 249 248 248 247 246 245 245 245 246 246 246 247 247 247 246 246 245 244 244
258 256 254 252 250 252 255 255 254 253 253 253 253 252 252 252 252 253 253 253 252 252 251 250 249 248 247 247 246 246 245 245 246 246 246 247 247 247 247 247 247 246
259 258 257 255 252 251 252 254 254 254 253 253 252 252 252 252 252 252 252 252 252 252 252 252 251 250 248 247 247 246 246 246 246 246 246 246 246 247 247 248 248 248
260 260 259 257 256 254 254 254 254 254 254 254 253 252 252 252 252 252 252 253 253 253 253 253 253 252 251 250 248 247 246 246 246 246 246 246 246 246 247 247 247 248
262 262 262 260 258 257 257 256 256 255 255 255 254 254 253 252 252 253 254 254 254 254 254 254 253 253 252 251 250 249 247 246 246 247 247 246 246 246 246 246 247 247
264 264 264 263 262 261 260 259 259 258 257 256 255 254 254 253 253 254 254 254 254 254 254 254 254 254 253 252 251 250 249 248 247 247 247 247 247 247 246 246 246 246
263 264 265 265 265 264 263 262 261 261 260 259 258 256 255 254 254 254 254 254 255 254 255 255 255 254 254 253 252 251 250 249 249 248 248 248 248 247 247 247 247 247
262 263 264 264 264 264 264 264 263 263 262 261 261 259 258 256 255 254 254 254 255 255 256 256 256 255 254 253 253 252 252 251 250 250 249 249 249 248 248 248 248 248
261 262 262 263 263 263 263 263 263 263 263 262 262 261 260 259 257 257 256 256 255 255 255 256 257 257 256 255 254 254 253 252 252 251 251 250 250 250 249 249 248 248
261 261 261 261 261 262 262 262 262 263 262 262 262 261 261 261 260 258 258 257 257 256 255 256 257 257 257 257 256 255 254 254 253 252 252 252 251 251 251 250 249 249
262 262 262 262 262 262 262 262 262 262 262 262 262 262 261 261 261 260 259 259 258 258 257 257 257 257 258 258 257 257 256 255 254 253 252 252 252 252 252 252 251 251
262 262 263 263 263 263 263 262 262 262 262 262 263 263 262 262 261 261 261 261 260 260 259 258 258 258 258 258 258 257 256 256 255 254 253 253 253 253 253 253 253 252
262 262 262 263 263 263 263 263 262 262 262 262 262 263 263 263 262 262 261 261 261 261 260 260 260 260 260 259 259 258 257 257 257 256 255 254 254 253 254 254 254 254
262 262 262 262 262 262 262 262 262 262 262 262 261 261 262 262 262 263 263 262 262 261 261 261 262 262 261 261 260 259 259 258 258 257 256 256 256 255 254 254 254 254
261 261 261 261 261 262 262 261 261 261 261 261 261 261 261 261 261 262 262 262 262 262 262 262 262 262 262 261 261 260 260 259 259 258 258 258 258 257 256 255 254 254
Height
10566 10567 10568 10569 10570 10571 10572 10574 10575 10576 10578 10579 10580 10581 10581 10582 10582 10583 10583 10584 10585 10586 10588 10589 10590 10591 10593 10594 10596 10598 10600 10601 10602 10604 10605 10607 10608 10610 10613 10615 10618 10620
10560 10561 10562 10563 10564 10565 10566 10568 10569 10570 10572 10573 10574 10575 10576 10576 10577 10577 10578 10579 10580 10581 10583 10584 10585 10586 10588 10590 10592 10594 10596 10597 10599 10600 10601 10602 10604 10606 10607 10609 10611 10613
10554 10555 10556 10557 10558 10559 10560 10561 10562 10563 10564 10566 10567 10568 10569 10570 10571 10572 10573 10574 10575 10576 10577 10579 10580 10581 10583 10585 10586 10588 10591 10593 10594 10596 10597 10599 10600 10602 10603 10604 10605 10607
10547 10548 10549 10551 10552 10552 10553 10554 10555 10556 10557 10559 10560 10562 10563 10564 10565 10567 10568 10568 10570 10571 10572 10573 10575 10576 10577 10579 10581 10583 10585 10587 10589 10591 10593 10594 10596 10597 10599 10600 10601 10602
10540 10541 10542 10543 10544 10545 10546 10547 10548 10550 10551 10553 10555 10556 10558 10559 10560 10561 10562 10564 10565 10566 10567 10568 10569 10571 10572 10573 10575 10577 10579 10581 10583 10585 10586 10588 10590 10592 10593 10595 10596 10597
10532 10533 10535 10536 10536 10537 10538 10540 10542 10544 10545 10547 10549 10550 10552 10553 10554 10555 10556 10558 10560 10561 10562 10562 10563 10564 10565 10567 10569 10571 10573 10575 10576 10578 10579 10581 10583 10585 10587 10589 10590 10592
10523 10526 10527 10528 10528 10528 10530 10533 10535 10537 10538 10540 10541 10543 10544 10546 10547 10548 10549 10551 10553 10554 10555 10556 10556 10557 10558 10560 10562 10564 10566 10568 10569 10571 10572 10574 10576 10578 10580 10582 10583 10585
10515 10517 10518 10519 10519 10520 10521 10524 10526 10528 10531 10532 10534 10535 10537 10538 10539 10540 10541 10543 10545 10546 10547 10548 10549 10550 10551 10553 10555 10557 10559 10561 10562 10564 10565 10567 10569 10570 10572 10574 10576 10577
10506 10507 10508 10510 10510 10511 10513 10515 10517 10520 10522 10524 10526 10527 10529 10530 10531 10532 10534 10535 10537 10538 10539 10540 10541 10542 10543 10545 10547 10549 10551 10552 10554 10556 10558 10559 10561 10562 10564 10565 10567 10569
10496 10497 10499 10500 10501 10503 10505 10506 10508 10510 10512 10514 10517 10518 10520 10521 10523 10524 10526 10527 10528 10530 10531 10531 10532 10532 10534 10537 10539 10541 10542 10543 10545 10547 10549 10551 10552 10554 10555 10556 10558 10560
10485 10487 10490 10492 10494 10495 10495 10495 10498 10500 10502 10505 10507 10509 10510 10513 10514 10516 10517 10518 10519 10521 10522 10522 10522 10522 10524 10527 10530 10532 10533 10534 10536 10537 10539 10541 10543 10544 10546 10548 10549 10551
10475 10477 10479 10483 10487 10487 10483 10484 10488 10491 10492 10495 10497 10500 10502 10504 10505 10507 10508 10509 10509 10511 10511 10511 10511 10512 10514 10517 10521 10523 10524 10525 10527 10528 10530 10531 10533 10535 10537 10539 10541 10543
10465 10467 10469 10473 10478 10479 10474 10474 10478 10481 10482 10484 10487 10490 10492 10493 10496 10497 10497 10497 10498 10499 10499 10499 10500 10502 10505 10508 10511 10513 10515 10517 10518 10520 10521 10523 10525 10527 10529 10531 10533 10534
10454 10456 10459 10462 10466 10468 10467 10466 10468 10471 10473 10474 10476 10479 10481 10483 10486 10485 10484 10485 10487 10487 10487 10488 10489 10492 10496 10499 10501 10504 10506 10508 10509 10510 10512 10515 10517 10519 10521 10522 10524 10525
10445 10446 10449 10452 10455 10457 10458 10458 10460 10462 10463 10464 10466 10468 10471 10474 10474 10472 10474 10477 10477 10477 10478 10479 10480 10483 10485 10488 10491 10493 10496 10498 10500 10501 10503 10505 10507 10509 10511 10513 10514 10516
10436 10437 10439 10442 10444 10446 10448 10449 10451 10452 10453 10454 10456 10458 10461 10464 10464 10463 10467 10469 10467 10467 10469 10470 10471 10472 10473 10475 10478 10481 10485 10488 10490 10491 10492 10495 10497 10499 10501 10502 10504 10506
10425 10426 10428 10430 10433 10435 10437 10439 10441 10441 10442 10444 10446 10449 10451 10453 10454 10455 10458 10458 10455 10456 10459 10460 10460 10459 10460 10462 10465 10468 10473 10477 10479 10481 10482 10484 10487 10489 10490 10492 10494 10495
10415 10416 10417 10420 10422 10424 10426 10428 10430 10430 10431 10432 10435 10438 10440 10443 10444 10445 10446 10446 10444 10446 10449 10449 10447 10446 10446 10449 10452 10457 10462 10466 10467 10469 10471 10473 10475 10478 10479 10481 10483 10484
10406 10407 10408 10409 10411 10413 10415 10417 10418 10419 10420 10421 10423 10425 10428 10432 10434 10434 10435 10435 10435 10438 10440 10436 10433 10433 10434 10436 10441 10448 10452 10454 10455 10457 10459 10461 10464 10466 10467 10469 10471 10473
10396 10397 10399 10400 10401 10403 10405 10406 10407 10407 10408 10410 10412 10413 10416 10419 10422 10423 10423 10423 10424 10427 10428 10425 10421 10421 10423 10426 10433 10438 10441 10441 10443 10446 10447 10450 10452 10453 10454 10457 10459 10461
10385 10386 10388 10390 10392 10393 10395 10396 10397 10397 10397 10399 10400 10402 10404 10406 10409 10410 10411 10412 10412 10414 10416 10416 10413 10411 10412 10417 10423 10427 10428 10428 10430 10433 10435 10437 10439 10440 10441 10444 10447 10449
10373 10375 10377 10379 10381 10384 10385 10386 10387 10387 10386 10388 10389 10391 10393 10394 10396 10397 10398 10399 10401 10402 10404 10404 10402 10401 10403 10408 10413 10414 10415 10415 10417 10420 10422 10424 10425 10426 10428 10431 10434 10436
10361 10364 10366 10367 10369 10372 10374 10375 10376 10376 10377 10377 10378 10379 10381 10382 10384 10385 10385 10386 10388 10389 10391 10391 10391 10391 10395 10399 10401 10401 10402 10404 10406 10408 10410 10411 10412 10414 10416 10418 10420 10422
10349 10352 10355 10356 10358 10360 10362 10364 10365 10366 10367 10367 10368 10369 10369 10370 10371 10372 10373 10374 10376 10376 10377 10378 10379 10382 10385 10388 10389 10390 10391 10393 10395 10396 10398 10399 10400 10402 10404 10405 10407 10408
10337 10340 10342 10345 10347 10349 10351 10353 10353 10354 10355 10357 10357 10358 10358 10358 10359 10360 10361 10362 10363 10363 10365 10368 10369 10370 10372 10374 10376 10378 10380 10382 10382 10383 10385 10387 10389 10390 10392 10392 10393 10394
10325 10328 10331 10333 10335 10337 10339 10341 10342 10342 10344 10345 10345 10346 10347 10347 10348 10349 10349 10349 10349 10351 10355 10357 10357 10357 10358 10360 10364 10366 10368 10369 10370 10372 10374 10376 10377 10378 10378 10379 10379 10380